AIC211 VIDP-VNKT

Flight info

Callsign AIC211
Flight time 1h 12m
Altitude 35000
Route ALI G452 LKN G598 SMR
Aircraft A320/M-SDE3FGHIRWY/LB1

Departure

Time 2026-04-30 06:25
Airport Indira Gandhi International Airport (VIDP)

Arrival

Time 2026-04-30 07:37
Airport Tribhuvan International Airport (VNKT)
Time Latitude Longitude Altitude Speed Heading
2026-04-30 06:09 28.56120 77.08252 750 ft 0 kts 239°
2026-04-30 06:14 28.56120 77.08253 750 ft 1 kts 239°
2026-04-30 06:15 28.56127 77.08267 745 ft 2 kts 239°
2026-04-30 06:15 28.56134 77.08280 745 ft 2 kts 239°
2026-04-30 06:15 28.56142 77.08294 748 ft 2 kts 239°
2026-04-30 06:15 28.56149 77.08308 747 ft 2 kts 239°
2026-04-30 06:16 28.56156 77.08321 746 ft 2 kts 261°
2026-04-30 06:16 28.56154 77.08337 747 ft 2 kts 319°
2026-04-30 06:16 28.56143 77.08346 749 ft 2 kts 328°
2026-04-30 06:16 28.56142 77.08347 749 ft 0 kts 329°
2026-04-30 06:18 28.56154 77.08339 747 ft 6 kts 329°
2026-04-30 06:18 28.56211 77.08301 749 ft 12 kts 330°
2026-04-30 06:19 28.56300 77.08242 749 ft 17 kts 326°
2026-04-30 06:19 28.56341 77.08119 748 ft 17 kts 282°
2026-04-30 06:19 28.56273 77.08050 746 ft 16 kts 193°
2026-04-30 06:19 28.56150 77.08015 750 ft 20 kts 194°
2026-04-30 06:20 28.56001 77.07971 749 ft 24 kts 194°
2026-04-30 06:20 28.55829 77.07920 748 ft 27 kts 194°
2026-04-30 06:20 28.55639 77.07866 748 ft 30 kts 194°
2026-04-30 06:20 28.55431 77.07806 747 ft 32 kts 194°
2026-04-30 06:21 28.55241 77.07751 748 ft 28 kts 194°
2026-04-30 06:21 28.55149 77.07674 751 ft 16 kts 282°
2026-04-30 06:21 28.55181 77.07537 751 ft 20 kts 284°
2026-04-30 06:21 28.55218 77.07367 747 ft 24 kts 284°
2026-04-30 06:22 28.55265 77.07167 750 ft 28 kts 285°
2026-04-30 06:22 28.55265 77.06997 751 ft 19 kts 208°
2026-04-30 06:22 28.55154 77.06967 747 ft 17 kts 192°
2026-04-30 06:22 28.55027 77.06935 745 ft 20 kts 192°
2026-04-30 06:23 28.54989 77.06931 749 ft 0 kts 174°
2026-04-30 06:23 28.54983 77.06954 746 ft 7 kts 101°
2026-04-30 06:23 28.54980 77.06972 748 ft 0 kts 102°
2026-04-30 06:24 28.54980 77.06975 749 ft 0 kts 102°
2026-04-30 06:24 28.54958 77.07077 750 ft 48 kts 104°
2026-04-30 06:24 28.54811 77.07767 750 ft 129 kts 103°
2026-04-30 06:24 28.54543 77.08999 864 ft 180 kts 107°
2026-04-30 06:25 28.54228 77.10373 1733 ft 179 kts 105°
2026-04-30 06:25 28.53612 77.11626 2486 ft 195 kts 141°
2026-04-30 06:25 28.52293 77.12211 2793 ft 218 kts 169°
2026-04-30 06:25 28.50711 77.12438 3137 ft 241 kts 175°
2026-04-30 06:26 28.48971 77.12594 3642 ft 259 kts 175°
2026-04-30 06:26 28.47144 77.12771 4365 ft 266 kts 176°
2026-04-30 06:26 28.45271 77.12974 5032 ft 276 kts 177°
2026-04-30 06:26 28.43332 77.13195 5680 ft 283 kts 177°
2026-04-30 06:27 28.41375 77.13437 6370 ft 288 kts 177°
2026-04-30 06:27 28.39362 77.13699 7068 ft 293 kts 176°
2026-04-30 06:27 28.37324 77.13984 7786 ft 297 kts 176°
2026-04-30 06:27 28.35258 77.14290 8541 ft 300 kts 176°
2026-04-30 06:28 28.33173 77.14606 9284 ft 304 kts 176°
2026-04-30 06:28 28.31069 77.14921 10026 ft 306 kts 177°
2026-04-30 06:28 28.28946 77.15158 10706 ft 307 kts 185°
2026-04-30 06:28 28.26826 77.14956 11384 ft 306 kts 192°
2026-04-30 06:29 28.24702 77.14649 12106 ft 308 kts 193°
2026-04-30 06:29 28.22564 77.14335 12828 ft 311 kts 193°
2026-04-30 06:29 28.20410 77.14019 13545 ft 314 kts 193°
2026-04-30 06:29 28.18232 77.13703 14181 ft 317 kts 193°
2026-04-30 06:30 28.16040 77.13387 14784 ft 320 kts 193°
2026-04-30 06:30 28.13812 77.13068 15391 ft 324 kts 193°
2026-04-30 06:30 28.11568 77.12747 15987 ft 328 kts 193°
2026-04-30 06:30 28.09287 77.12443 16572 ft 334 kts 188°
2026-04-30 06:31 28.06935 77.12708 17148 ft 349 kts 168°
2026-04-30 06:31 28.04705 77.13891 17666 ft 363 kts 148°
2026-04-30 06:31 28.02875 77.15970 17800 ft 387 kts 124°
2026-04-30 06:31 28.01665 77.18767 17943 ft 404 kts 113°
2026-04-30 06:32 28.00547 77.21730 18264 ft 413 kts 113°
2026-04-30 06:32 27.99408 77.24734 18726 ft 418 kts 113°
2026-04-30 06:32 27.98249 77.27768 19211 ft 422 kts 114°
2026-04-30 06:32 27.97072 77.30808 19746 ft 424 kts 114°
2026-04-30 06:33 27.95880 77.33865 20306 ft 426 kts 114°
2026-04-30 06:33 27.94679 77.36936 20857 ft 428 kts 114°
2026-04-30 06:33 27.93475 77.40015 21404 ft 429 kts 115°
2026-04-30 06:33 27.92264 77.43111 21959 ft 431 kts 115°
2026-04-30 06:34 27.91060 77.46228 22514 ft 434 kts 114°
2026-04-30 06:34 27.89931 77.49400 23047 ft 436 kts 112°
2026-04-30 06:34 27.88870 77.52621 23535 ft 438 kts 110°
2026-04-30 06:34 27.87845 77.55876 23937 ft 441 kts 110°
2026-04-30 06:35 27.86825 77.59147 24315 ft 444 kts 110°
2026-04-30 06:35 27.85783 77.62448 24705 ft 446 kts 110°
2026-04-30 06:35 27.84722 77.65742 25086 ft 448 kts 110°
2026-04-30 06:35 27.83684 77.69072 25454 ft 451 kts 105°
2026-04-30 06:36 27.83027 77.72547 25808 ft 452 kts 96°
2026-04-30 06:36 27.82858 77.76094 26152 ft 453 kts 88°
2026-04-30 06:36 27.82876 77.79657 26498 ft 455 kts 88°
2026-04-30 06:36 27.82894 77.83254 26853 ft 458 kts 88°
2026-04-30 06:37 27.82908 77.86858 27196 ft 460 kts 87°
2026-04-30 06:37 27.82916 77.90481 27534 ft 462 kts 87°
2026-04-30 06:37 27.82919 77.94127 27867 ft 465 kts 87°
2026-04-30 06:37 27.82921 77.97784 28201 ft 468 kts 88°
2026-04-30 06:38 27.82925 78.01478 28461 ft 471 kts 88°
2026-04-30 06:38 27.82929 78.05192 28749 ft 474 kts 88°
2026-04-30 06:38 27.82930 78.08924 29039 ft 476 kts 88°
2026-04-30 06:38 27.82928 78.12675 29332 ft 479 kts 88°
2026-04-30 06:39 27.82695 78.16439 29610 ft 483 kts 97°
2026-04-30 06:39 27.81944 78.20156 29872 ft 487 kts 107°
2026-04-30 06:39 27.80731 78.23697 30073 ft 490 kts 112°
2026-04-30 06:39 27.79369 78.27296 30270 ft 493 kts 112°
2026-04-30 06:40 27.78024 78.30869 30460 ft 496 kts 112°
2026-04-30 06:40 27.76695 78.34414 30644 ft 498 kts 111°
2026-04-30 06:40 27.75344 78.38025 30825 ft 500 kts 111°
2026-04-30 06:40 27.73987 78.41654 30992 ft 503 kts 111°
2026-04-30 06:41 27.72603 78.45346 31196 ft 504 kts 111°
2026-04-30 06:41 27.71235 78.48984 31444 ft 505 kts 111°
2026-04-30 06:41 27.69858 78.52631 31681 ft 506 kts 111°
2026-04-30 06:41 27.68491 78.56242 31907 ft 506 kts 111°
2026-04-30 06:42 27.67108 78.59901 32129 ft 507 kts 111°
2026-04-30 06:42 27.65723 78.63566 32359 ft 508 kts 111°
2026-04-30 06:42 27.64335 78.67237 32581 ft 509 kts 111°
2026-04-30 06:42 27.62942 78.70914 32833 ft 510 kts 112°
2026-04-30 06:43 27.61543 78.74595 33039 ft 512 kts 111°
2026-04-30 06:43 27.60114 78.78346 33170 ft 515 kts 111°
2026-04-30 06:43 27.58717 78.82021 33301 ft 519 kts 111°
2026-04-30 06:43 27.57293 78.85766 33470 ft 521 kts 111°
2026-04-30 06:44 27.55850 78.89563 33679 ft 522 kts 110°
2026-04-30 06:44 27.54416 78.93328 33858 ft 523 kts 110°
2026-04-30 06:44 27.52981 78.97099 34033 ft 524 kts 110°
2026-04-30 06:44 27.51544 79.00870 34214 ft 524 kts 110°
2026-04-30 06:45 27.50103 79.04642 34397 ft 524 kts 110°
2026-04-30 06:45 27.48661 79.08410 34637 ft 522 kts 111°
2026-04-30 06:45 27.47223 79.12161 34741 ft 517 kts 111°
2026-04-30 06:46 27.44398 79.19521 34773 ft 509 kts 111°
2026-04-30 06:46 27.41607 79.26772 34773 ft 508 kts 111°
2026-04-30 06:47 27.38797 79.34069 34781 ft 507 kts 111°
2026-04-30 06:47 27.35992 79.41349 34766 ft 509 kts 111°
2026-04-30 06:48 27.33152 79.48708 34812 ft 513 kts 111°
2026-04-30 06:48 27.30256 79.56032 34812 ft 512 kts 112°
2026-04-30 06:49 27.27307 79.63311 34809 ft 511 kts 112°
2026-04-30 06:49 27.24365 79.70571 34801 ft 510 kts 112°
2026-04-30 06:50 27.21440 79.77832 34797 ft 510 kts 112°
2026-04-30 06:50 27.19012 79.83866 34818 ft 510 kts 112°
2026-04-30 06:51 27.16088 79.91127 34808 ft 510 kts 112°
2026-04-30 06:51 27.13164 79.98368 34800 ft 510 kts 112°
2026-04-30 06:52 27.10228 80.05610 34781 ft 510 kts 112°
2026-04-30 06:52 27.07281 80.12867 34784 ft 511 kts 112°
2026-04-30 06:53 27.04335 80.20114 34797 ft 511 kts 112°
2026-04-30 06:53 27.01379 80.27356 34823 ft 509 kts 112°
2026-04-30 06:54 26.98431 80.34569 34835 ft 508 kts 113°
2026-04-30 06:54 26.95483 80.41764 34833 ft 507 kts 113°
2026-04-30 06:55 26.92533 80.48953 34829 ft 507 kts 113°
2026-04-30 06:55 26.89592 80.56124 34849 ft 506 kts 113°
2026-04-30 06:56 26.86676 80.63235 34846 ft 504 kts 113°
2026-04-30 06:56 26.83748 80.70366 34812 ft 503 kts 113°
2026-04-30 06:57 26.80797 80.77526 34811 ft 503 kts 113°
2026-04-30 06:57 26.77939 80.84626 34811 ft 502 kts 108°
2026-04-30 06:58 26.76517 80.92181 34824 ft 493 kts 89°
2026-04-30 06:58 26.77000 80.99750 34824 ft 486 kts 78°
2026-04-30 06:59 26.77855 81.07255 34821 ft 486 kts 78°
2026-04-30 06:59 26.78680 81.14773 34828 ft 486 kts 78°
2026-04-30 07:00 26.79490 81.22283 34827 ft 486 kts 78°
2026-04-30 07:00 26.80310 81.29793 34840 ft 486 kts 79°
2026-04-30 07:01 26.81131 81.37300 34829 ft 486 kts 79°
2026-04-30 07:01 26.81936 81.44772 34832 ft 485 kts 79°
2026-04-30 07:02 26.82732 81.52275 34815 ft 485 kts 79°
2026-04-30 07:02 26.83536 81.59768 34824 ft 485 kts 79°
2026-04-30 07:03 26.84337 81.67275 34832 ft 485 kts 80°
2026-04-30 07:03 26.85127 81.74762 34833 ft 484 kts 80°
2026-04-30 07:04 26.85914 81.82249 34826 ft 483 kts 80°
2026-04-30 07:04 26.86696 81.89731 34837 ft 483 kts 80°
2026-04-30 07:05 26.87864 82.00932 34842 ft 483 kts 80°
2026-04-30 07:05 26.88640 82.08393 34836 ft 482 kts 80°
2026-04-30 07:06 26.89398 82.15802 34839 ft 482 kts 81°
2026-04-30 07:06 26.90157 82.23259 34834 ft 482 kts 81°
2026-04-30 07:07 26.90916 82.30721 34831 ft 482 kts 81°
2026-04-30 07:07 26.91675 82.38188 34815 ft 482 kts 81°
2026-04-30 07:08 26.92422 82.45647 34821 ft 482 kts 81°
2026-04-30 07:08 26.93170 82.53105 34821 ft 481 kts 81°
2026-04-30 07:09 26.93910 82.60566 34822 ft 481 kts 81°
2026-04-30 07:09 26.94643 82.68010 34820 ft 481 kts 81°
2026-04-30 07:10 26.95381 82.75463 34821 ft 481 kts 81°
2026-04-30 07:10 26.96117 82.82925 34820 ft 481 kts 82°
2026-04-30 07:11 26.96836 82.90334 34825 ft 481 kts 82°
2026-04-30 07:11 26.97563 82.97786 34824 ft 481 kts 82°
2026-04-30 07:12 26.98302 83.05250 34822 ft 481 kts 81°
2026-04-30 07:12 26.99071 83.12694 34823 ft 481 kts 81°
2026-04-30 07:13 26.99842 83.20153 34824 ft 481 kts 82°
2026-04-30 07:13 27.00597 83.27624 34817 ft 482 kts 82°
2026-04-30 07:14 27.01348 83.35107 34585 ft 485 kts 82°
2026-04-30 07:14 27.01724 83.38860 34179 ft 481 kts 82°
2026-04-30 07:14 27.02097 83.42565 33793 ft 475 kts 83°
2026-04-30 07:15 27.02464 83.46229 33335 ft 471 kts 83°
2026-04-30 07:15 27.02830 83.49869 32872 ft 468 kts 83°
2026-04-30 07:15 27.03197 83.53532 32402 ft 480 kts 84°
2026-04-30 07:15 27.03570 83.57277 31917 ft 484 kts 83°
2026-04-30 07:16 27.03941 83.61033 31472 ft 484 kts 83°
2026-04-30 07:16 27.04307 83.64777 31047 ft 482 kts 83°
2026-04-30 07:16 27.04672 83.68504 30624 ft 479 kts 83°
2026-04-30 07:16 27.05034 83.72211 30206 ft 477 kts 83°
2026-04-30 07:17 27.05394 83.75894 29770 ft 474 kts 83°
2026-04-30 07:17 27.05753 83.79559 29282 ft 471 kts 83°
2026-04-30 07:17 27.06461 83.86811 28326 ft 463 kts 83°
2026-04-30 07:18 27.06806 83.90388 27873 ft 459 kts 83°
2026-04-30 07:18 27.07145 83.93936 27426 ft 455 kts 83°
2026-04-30 07:18 27.07481 83.97453 26978 ft 451 kts 83°
2026-04-30 07:18 27.07816 84.00948 26535 ft 448 kts 83°
2026-04-30 07:19 27.08143 84.04360 26109 ft 444 kts 83°
2026-04-30 07:19 27.08472 84.07796 25694 ft 441 kts 83°
2026-04-30 07:19 27.08799 84.11206 25273 ft 438 kts 83°
2026-04-30 07:19 27.09122 84.14589 24857 ft 434 kts 83°
2026-04-30 07:20 27.09442 84.17947 24446 ft 431 kts 83°
2026-04-30 07:20 27.09757 84.21282 24042 ft 428 kts 83°
2026-04-30 07:20 27.10068 84.24595 23658 ft 425 kts 83°
2026-04-30 07:20 27.10375 84.27891 23215 ft 422 kts 83°
2026-04-30 07:21 27.10680 84.31149 22747 ft 419 kts 83°
2026-04-30 07:21 27.10983 84.34389 22272 ft 416 kts 83°
2026-04-30 07:21 27.11282 84.37614 21834 ft 413 kts 83°
2026-04-30 07:21 27.11578 84.40801 21385 ft 410 kts 83°
2026-04-30 07:22 27.12163 84.47120 20500 ft 404 kts 83°
2026-04-30 07:22 27.12453 84.50243 20066 ft 401 kts 83°
2026-04-30 07:22 27.12742 84.53350 19665 ft 398 kts 83°
2026-04-30 07:23 27.13028 84.56431 19244 ft 395 kts 83°
2026-04-30 07:23 27.13310 84.59486 18831 ft 392 kts 83°
2026-04-30 07:23 27.13589 84.62530 18426 ft 390 kts 83°
2026-04-30 07:23 27.13866 84.65542 17992 ft 388 kts 83°
2026-04-30 07:24 27.14134 84.68546 17541 ft 385 kts 84°
2026-04-30 07:24 27.14377 84.71534 17076 ft 383 kts 84°
2026-04-30 07:24 27.14604 84.74508 16629 ft 381 kts 85°
2026-04-30 07:24 27.14824 84.77468 16178 ft 379 kts 85°
2026-04-30 07:25 27.14969 84.79416 15881 ft 370 kts 85°
2026-04-30 07:25 27.15183 84.82246 15453 ft 358 kts 84°
2026-04-30 07:25 27.15396 84.85019 15052 ft 355 kts 85°
2026-04-30 07:25 27.15606 84.87752 14912 ft 346 kts 85°
2026-04-30 07:26 27.15813 84.90414 14933 ft 342 kts 84°
2026-04-30 07:26 27.16021 84.93070 14937 ft 341 kts 84°
2026-04-30 07:26 27.16259 84.95721 14763 ft 342 kts 79°
2026-04-30 07:26 27.16914 84.98276 14427 ft 339 kts 65°
2026-04-30 07:27 27.18054 85.00568 14076 ft 336 kts 52°
2026-04-30 07:27 27.19486 85.02628 13737 ft 334 kts 49°
2026-04-30 07:27 27.20922 85.04680 13376 ft 332 kts 50°
2026-04-30 07:27 27.22328 85.06704 13124 ft 327 kts 50°
2026-04-30 07:28 27.23715 85.08705 12870 ft 322 kts 50°
2026-04-30 07:28 27.25078 85.10677 12617 ft 317 kts 51°
2026-04-30 07:28 27.26402 85.12592 12387 ft 312 kts 51°
2026-04-30 07:28 27.27728 85.14511 12161 ft 308 kts 51°
2026-04-30 07:29 27.29054 85.16383 11914 ft 304 kts 46°
2026-04-30 07:29 27.30623 85.17950 11667 ft 298 kts 32°
2026-04-30 07:29 27.32417 85.19059 11418 ft 291 kts 19°
2026-04-30 07:29 27.34265 85.19893 11182 ft 281 kts 19°
2026-04-30 07:30 27.37846 85.21513 10710 ft 274 kts 19°
2026-04-30 07:30 27.39609 85.22315 10526 ft 270 kts 20°
2026-04-30 07:30 27.40751 85.22825 10480 ft 264 kts 17°
2026-04-30 07:31 27.42478 85.23328 10219 ft 253 kts 10°
2026-04-30 07:31 27.44215 85.23756 9617 ft 256 kts 11°
2026-04-30 07:31 27.46480 85.24301 8963 ft 236 kts
2026-04-30 07:31 27.47538 85.24403 8723 ft 225 kts 358°
2026-04-30 07:32 27.49510 85.24130 8299 ft 202 kts 342°
2026-04-30 07:32 27.50828 85.23753 8071 ft 190 kts 348°
2026-04-30 07:32 27.51688 85.23641 7955 ft 187 kts 355°
2026-04-30 07:32 27.52981 85.23707 7715 ft 186 kts
2026-04-30 07:33 27.54233 85.24054 7503 ft 184 kts 19°
2026-04-30 07:33 27.55737 85.24916 7211 ft 183 kts 34°
2026-04-30 07:33 27.56406 85.25501 7061 ft 175 kts 41°
2026-04-30 07:33 27.57302 85.26355 6854 ft 164 kts 40°
2026-04-30 07:34 27.58147 85.27165 6660 ft 159 kts 44°
2026-04-30 07:34 27.59114 85.28403 6404 ft 156 kts 55°
2026-04-30 07:34 27.59505 85.29079 6276 ft 155 kts 60°
2026-04-30 07:34 27.60088 85.30094 6078 ft 154 kts 53°
2026-04-30 07:35 27.60784 85.31010 5880 ft 154 kts 46°
2026-04-30 07:35 27.61575 85.31819 5696 ft 154 kts 39°
2026-04-30 07:35 27.62452 85.32509 5501 ft 153 kts 31°
2026-04-30 07:35 27.63394 85.33065 5309 ft 152 kts 23°
2026-04-30 07:36 27.64372 85.33519 5094 ft 152 kts 20°
2026-04-30 07:36 27.65350 85.33954 4900 ft 150 kts 21°
2026-04-30 07:36 27.66316 85.34395 4738 ft 149 kts 20°
2026-04-30 07:36 27.67279 85.34827 4590 ft 149 kts 21°
2026-04-30 07:37 27.68243 85.35269 4452 ft 150 kts 21°
2026-04-30 07:37 27.69167 85.35691 4394 ft 119 kts 22°
2026-04-30 07:37 27.69730 85.35947 4395 ft 68 kts 22°
2026-04-30 07:37 27.70084 85.36109 4396 ft 37 kts 22°
2026-04-30 07:38 27.70208 85.36092 4398 ft 16 kts 316°
2026-04-30 07:38 27.70192 85.36038 4398 ft 6 kts 199°
2026-04-30 07:38 27.70160 85.36024 4398 ft 5 kts 202°
2026-04-30 07:38 27.70124 85.36008 4397 ft 7 kts 202°
2026-04-30 07:39 27.70068 85.35982 4397 ft 10 kts 205°
2026-04-30 07:39 27.69994 85.35947 4397 ft 13 kts 201°
2026-04-30 07:39 27.69907 85.35908 4397 ft 15 kts 201°
2026-04-30 07:39 27.69808 85.35864 4397 ft 13 kts 202°
2026-04-30 07:40 27.69797 85.35809 4397 ft 6 kts 292°
2026-04-30 07:40 27.69809 85.35778 4398 ft 3 kts 294°
2026-04-30 07:40 27.69816 85.35761 4398 ft 1 kts 293°
2026-04-30 07:40 27.69817 85.35757 4398 ft 0 kts 293°
2026-04-30 07:41 27.69818 85.35756 4398 ft 0 kts 293°